| time (UTC) | temp C | wind direction | speed KPH | gust KPH | rain 1hr cm | rain 24hr cm | rain mn cm | humidity % | barometer mb |
| 20260506062457 | 13 | 212 | 22.5 | 48.3 | 0.00 | 0.00 | 0.00 | 87 | 1012.9 |
| 20260506061957 | 13 | 215 | 27.4 | 51.5 | 0.00 | 0.00 | 0.00 | 88 | 1012.8 |
| 20260506061457 | 13 | 220 | 22.5 | 46.7 | 0.00 | 0.00 | 0.00 | 88 | 1012.8 |
| 20260506060957 | 13 | 212 | 19.3 | 43.5 | 0.00 | 0.00 | 0.00 | 87 | 1012.7 |
| 20260506060457 | 13 | 218 | 27.4 | 45.1 | 0.00 | 0.00 | 0.00 | 87 | 1012.8 |
| 20260506050957 | 13 | 213 | 30.6 | 48.3 | 0.00 | 0.00 | 0.00 | 87 | 1013.1 |
| 20260506050458 | 13 | 215 | 24.1 | 48.3 | 0.00 | 0.00 | 0.00 | 86 | 1013.2 |
| 20260506044957 | 13 | 214 | 22.5 | 48.3 | 0.00 | 0.00 | 0.00 | 86 | 1013.3 |
| 20260506044457 | 13 | 212 | 27.4 | 48.3 | 0.00 | 0.00 | 0.00 | 86 | 1013.1 |
| 20260506043957 | 13 | 218 | 25.7 | 51.5 | 0.00 | 0.00 | 0.00 | 85 | 1013.2 |
| 20260506043457 | 13 | 216 | 29.0 | 57.9 | 0.00 | 0.00 | 0.00 | 85 | 1013.0 |
| 20260506042957 | 13 | 216 | 22.5 | 54.7 | 0.00 | 0.00 | 0.00 | 85 | 1013.1 |
| 20260506042457 | 13 | 219 | 25.7 | 53.1 | 0.00 | 0.00 | 0.00 | 84 | 1013.1 |
| 20260506042000 | 13 | 217 | 22.5 | 51.5 | 0.00 | 0.00 | 0.00 | 84 | 1013.2 |
| 20260506041457 | 13 | 215 | 17.7 | 45.1 | 0.00 | 0.00 | 0.00 | 83 | 1013.2 |
| 20260506040957 | 14 | 221 | 27.4 | 53.1 | 0.00 | 0.00 | 0.00 | 83 | 1013.1 |
| 20260506040458 | 14 | 215 | 27.4 | 61.2 | 0.00 | 0.00 | 0.00 | 83 | 1013.0 |
| 20260506035958 | 14 | 219 | 25.7 | 62.8 | 0.00 | 0.00 | 0.00 | 84 | 1013.0 |
| 20260506035458 | 13 | 211 | 27.4 | 51.5 | 0.00 | 0.00 | 0.00 | 84 | 1012.9 |
| 20260506034958 | 13 | 219 | 24.1 | 53.1 | 0.00 | 0.00 | 0.00 | 83 | 1013.3 |
| 20260506034458 | 13 | 216 | 25.7 | 49.9 | 0.00 | 0.00 | 0.00 | 83 | 1012.9 |
| 20260506033958 | 14 | 217 | 24.1 | 53.1 | 0.00 | 0.00 | 0.00 | 83 | 1012.9 |
| 20260506033458 | 14 | 219 | 25.7 | 48.3 | 0.00 | 0.00 | 0.00 | 82 | 1012.7 |
| 20260506032958 | 14 | 215 | 20.9 | 51.5 | 0.00 | 0.00 | 0.00 | 82 | 1012.8 |
| 20260506032458 | 14 | 213 | 24.1 | 57.9 | 0.00 | 0.00 | 0.00 | 82 | 1012.9 |
| 20260506031959 | 14 | 209 | 19.3 | 56.3 | 0.00 | 0.00 | 0.00 | 82 | 1012.9 |
| 20260506031458 | 14 | 218 | 20.9 | 49.9 | 0.00 | 0.00 | 0.00 | 81 | 1012.8 |
| 20260506030958 | 14 | 217 | 32.2 | 64.4 | 0.00 | 0.00 | 0.00 | 82 | 1012.7 |
| 20260506030458 | 14 | 216 | 19.3 | 49.9 | 0.00 | 0.00 | 0.00 | 81 | 1012.7 |
| 20260506025958 | 14 | 220 | 22.5 | 59.5 | 0.00 | 0.00 | 0.00 | 81 | 1012.6 |
| 20260506025458 | 14 | 218 | 24.1 | 57.9 | 0.00 | 0.00 | 0.00 | 81 | 1012.5 |
| 20260506024958 | 14 | 217 | 27.4 | 53.1 | 0.00 | 0.00 | 0.00 | 80 | 1012.6 |
| 20260506024458 | 14 | 218 | 25.7 | 66.0 | 0.00 | 0.00 | 0.00 | 80 | 1012.5 |
| 20260506023958 | 15 | 213 | 25.7 | 64.4 | 0.00 | 0.00 | 0.00 | 80 | 1012.5 |
| 20260506023458 | 15 | 220 | 30.6 | 56.3 | 0.00 | 0.00 | 0.00 | 80 | 1012.6 |
| 20260506022958 | 15 | 217 | 29.0 | 61.2 | 0.00 | 0.00 | 0.00 | 79 | 1012.5 |
| 20260506022457 | 14 | 217 | 24.1 | 57.9 | 0.00 | 0.00 | 0.00 | 79 | 1012.7 |
| 20260506021958 | 15 | 211 | 22.5 | 48.3 | 0.00 | 0.00 | 0.00 | 79 | 1012.8 |
| 20260506021458 | 15 | 215 | 25.7 | 45.1 | 0.00 | 0.00 | 0.00 | 78 | 1012.9 |
| 20260506020958 | 15 | 212 | 20.9 | 62.8 | 0.00 | 0.00 | 0.00 | 77 | 1013.0 |
| 20260506020458 | 15 | 215 | 25.7 | 48.3 | 0.00 | 0.00 | 0.00 | 77 | 1012.8 |
| 20260506015958 | 15 | 215 | 25.7 | 46.7 | 0.00 | 0.00 | 0.00 | 77 | 1012.8 |
| 20260506015458 | 15 | 207 | 20.9 | 48.3 | 0.00 | 0.00 | 0.00 | 77 | 1012.8 |
| 20260506014958 | 15 | 218 | 22.5 | 45.1 | 0.00 | 0.00 | 0.00 | 76 | 1012.9 |
| 20260506014458 | 15 | 225 | 27.4 | 51.5 | 0.00 | 0.00 | 0.00 | 76 | 1013.0 |
| 20260506013958 | 14 | 217 | 19.3 | 54.7 | 0.00 | 0.00 | 0.00 | 76 | 1013.0 |
| 20260506013458 | 14 | 214 | 19.3 | 45.1 | 0.00 | 0.00 | 0.00 | 76 | 1012.9 |
| 20260506012958 | 14 | 209 | 14.5 | 38.6 | 0.00 | 0.00 | 0.00 | 76 | 1012.8 |
| 20260506012457 | 14 | 212 | 16.1 | 54.7 | 0.00 | 0.00 | 0.00 | 76 | 1012.8 |
| 20260506011958 | 14 | 213 | 22.5 | 49.9 | 0.00 | 0.00 | 0.00 | 76 | 1012.8 |
| 20260506011458 | 14 | 214 | 20.9 | 54.7 | 0.00 | 0.00 | 0.00 | 76 | 1012.7 |
| 20260506010958 | 14 | 214 | 19.3 | 40.2 | 0.00 | 0.00 | 0.00 | 76 | 1012.8 |
| 20260506010456 | 14 | 206 | 17.7 | 46.7 | 0.00 | 0.00 | 0.00 | 75 | 1012.7 |
| 20260506005957 | 14 | 216 | 24.1 | 46.7 | 0.00 | 0.00 | 0.00 | 75 | 1012.6 |
| 20260506005458 | 14 | 210 | 20.9 | 38.6 | 0.00 | 0.00 | 0.00 | 74 | 1012.4 |
| 20260506004958 | 14 | 220 | 17.7 | 38.6 | 0.00 | 0.00 | 0.00 | 73 | 1012.5 |
| 20260506004458 | 14 | 208 | 20.9 | 45.1 | 0.00 | 0.00 | 0.00 | 72 | 1012.2 |
| 20260506003958 | 14 | 210 | 25.7 | 45.1 | 0.00 | 0.00 | 0.00 | 72 | 1012.1 |
| 20260506003458 | 14 | 214 | 17.7 | 45.1 | 0.00 | 0.00 | 0.00 | 71 | 1011.9 |
| 20260506002958 | 13 | 209 | 25.7 | 45.1 | 0.00 | 0.00 | 0.00 | 71 | 1011.5 |
| 20260506002458 | 14 | 203 | 17.7 | 45.1 | 0.00 | 0.00 | 0.00 | 71 | 1011.7 |
| 20260506001958 | 13 | 194 | 19.3 | 46.7 | 0.00 | 0.00 | 0.00 | 71 | 1011.3 |
| 20260506001458 | 14 | 208 | 20.9 | 51.5 | 0.00 | 0.00 | 0.00 | 71 | 1011.4 |
| 20260506000958 | 14 | 204 | 19.3 | 45.1 | 0.00 | 0.00 | 0.00 | 71 | 1011.4 |
| 20260506000458 | 14 | 210 | 22.5 | 45.1 | 0.00 | 0.00 | 0.00 | 70 | 1011.5 |
| 20260505235958 | 14 | 209 | 20.9 | 41.8 | 0.00 | 0.00 | 0.00 | 70 | 1011.6 |
| 20260505235458 | 14 | 220 | 20.9 | 45.1 | 0.00 | 0.00 | 0.00 | 70 | 1011.5 |
| 20260505234958 | 14 | 211 | 20.9 | 61.2 | 0.00 | 0.00 | 0.00 | 69 | 1011.6 |
| 20260505234458 | 14 | 207 | 22.5 | 54.7 | 0.00 | 0.00 | 0.00 | 69 | 1011.4 |
| 20260505233959 | 14 | 216 | 29.0 | 54.7 | 0.00 | 0.00 | 0.00 | 68 | 1011.4 |
| 20260505233458 | 15 | 217 | 24.1 | 51.5 | 0.00 | 0.00 | 0.00 | 69 | 1011.4 |
| 20260505232958 | 15 | 215 | 24.1 | 48.3 | 0.00 | 0.00 | 0.00 | 69 | 1011.3 |
| 20260505232457 | 15 | 215 | 19.3 | 43.5 | 0.00 | 0.00 | 0.00 | 69 | 1011.2 |
| 20260505231958 | 15 | 221 | 24.1 | 49.9 | 0.00 | 0.00 | 0.00 | 70 | 1011.3 |
| 20260505231457 | 15 | 208 | 25.7 | 56.3 | 0.00 | 0.00 | 0.00 | 70 | 1011.1 |
| 20260505230958 | 15 | 214 | 20.9 | 49.9 | 0.00 | 0.00 | 0.00 | 72 | 1011.1 |
| 20260505230458 | 15 | 214 | 27.4 | 51.5 | 0.00 | 0.00 | 0.00 | 72 | 1011.1 |
| 20260505225958 | 15 | 214 | 22.5 | 43.5 | 0.00 | 0.00 | 0.00 | 73 | 1011.1 |
| 20260505225458 | 15 | 212 | 20.9 | 51.5 | 0.00 | 0.00 | 0.00 | 73 | 1011.1 |
| 20260505224958 | 15 | 208 | 20.9 | 51.5 | 0.00 | 0.00 | 0.00 | 72 | 1011.0 |
| 20260505224458 | 15 | 215 | 24.1 | 49.9 | 0.00 | 0.00 | 0.00 | 72 | 1010.8 |
| 20260505223958 | 15 | 217 | 27.4 | 49.9 | 0.00 | 0.00 | 0.00 | 72 | 1010.9 |
| 20260505223458 | 15 | 207 | 25.7 | 43.5 | 0.00 | 0.00 | 0.00 | 71 | 1010.8 |
| 20260505222958 | 15 | 212 | 24.1 | 48.3 | 0.00 | 0.00 | 0.00 | 71 | 1010.9 |
| 20260505222457 | 16 | 208 | 20.9 | 46.7 | 0.00 | 0.00 | 0.00 | 71 | 1011.1 |
| 20260505221958 | 16 | 215 | 24.1 | 48.3 | 0.00 | 0.00 | 0.00 | 71 | 1010.8 |
| 20260505221458 | 16 | 214 | 20.9 | 54.7 | 0.00 | 0.00 | 0.00 | 71 | 1010.7 |
| 20260505220958 | 16 | 218 | 27.4 | 56.3 | 0.00 | 0.00 | 0.00 | 70 | 1010.7 |
| 20260505220458 | 16 | 220 | 30.6 | 56.3 | 0.00 | 0.00 | 0.00 | 69 | 1010.8 |
| 20260505215958 | 16 | 208 | 29.0 | 49.9 | 0.00 | 0.00 | 0.00 | 69 | 1010.7 |
| 20260505215457 | 16 | 208 | 24.1 | 56.3 | 0.00 | 0.00 | 0.00 | 69 | 1010.7 |
| 20260505214957 | 16 | 206 | 19.3 | 40.2 | 0.00 | 0.00 | 0.00 | 69 | 1010.9 |
| 20260505214458 | 16 | 212 | 20.9 | 46.7 | 0.00 | 0.00 | 0.00 | 69 | 1010.6 |
| 20260505213958 | 16 | 202 | 19.3 | 46.7 | 0.00 | 0.00 | 0.00 | 68 | 1010.9 |
| 20260505213458 | 16 | 213 | 27.4 | 59.5 | 0.00 | 0.00 | 0.00 | 68 | 1010.7 |
| 20260505212958 | 16 | 212 | 27.4 | 53.1 | 0.00 | 0.00 | 0.00 | 68 | 1010.8 |
| 20260505212457 | 16 | 212 | 29.0 | 48.3 | 0.00 | 0.00 | 0.00 | 68 | 1010.7 |
| 20260505211958 | 16 | 209 | 27.4 | 56.3 | 0.00 | 0.00 | 0.00 | 68 | 1010.7 |
| 20260505211458 | 16 | 210 | 22.5 | 49.9 | 0.00 | 0.00 | 0.00 | 68 | 1010.6 |
| 20260505210958 | 16 | 215 | 32.2 | 54.7 | 0.00 | 0.00 | 0.00 | 67 | 1010.4 |
| 20260505210457 | 16 | 204 | 19.3 | 56.3 | 0.00 | 0.00 | 0.00 | 68 | 1010.3 |
| 20260505205958 | 17 | 213 | 20.9 | 49.9 | 0.00 | 0.00 | 0.00 | 68 | 1010.7 |
| 20260505205458 | 17 | 210 | 24.1 | 54.7 | 0.00 | 0.00 | 0.00 | 67 | 1010.9 |
| 20260505204957 | 17 | 214 | 20.9 | 49.9 | 0.00 | 0.00 | 0.00 | 67 | 1010.4 |
| 20260505204458 | 17 | 211 | 22.5 | 46.7 | 0.00 | 0.00 | 0.00 | 68 | 1010.2 |
| 20260505203957 | 17 | 203 | 16.1 | 45.1 | 0.00 | 0.00 | 0.00 | 68 | 1010.3 |
| 20260505203458 | 17 | 214 | 24.1 | 46.7 | 0.00 | 0.00 | 0.00 | 67 | 1010.4 |
| 20260505202956 | 17 | 209 | 19.3 | 59.5 | 0.00 | 0.00 | 0.00 | 68 | 1010.4 |
| 20260505202457 | 17 | 213 | 25.7 | 49.9 | 0.00 | 0.00 | 0.00 | 67 | 1010.3 |
| 20260505201957 | 17 | 208 | 22.5 | 56.3 | 0.00 | 0.00 | 0.00 | 67 | 1010.4 |
| 20260505201457 | 17 | 199 | 17.7 | 51.5 | 0.00 | 0.00 | 0.00 | 66 | 1010.4 |
| 20260505200957 | 17 | 201 | 19.3 | 46.7 | 0.00 | 0.00 | 0.00 | 65 | 1010.5 |
| 20260505200457 | 17 | 203 | 17.7 | 54.7 | 0.00 | 0.00 | 0.00 | 66 | 1010.6 |
| 20260505195957 | 17 | 205 | 20.9 | 51.5 | 0.00 | 0.00 | 0.00 | 65 | 1010.5 |
| 20260505195457 | 17 | 206 | 16.1 | 43.5 | 0.00 | 0.00 | 0.00 | 66 | 1010.6 |
| 20260505194956 | 17 | 216 | 22.5 | 45.1 | 0.00 | 0.00 | 0.00 | 66 | 1010.7 |
| 20260505194457 | 17 | 212 | 29.0 | 53.1 | 0.00 | 0.00 | 0.00 | 65 | 1010.7 |
| 20260505193956 | 17 | 212 | 22.5 | 40.2 | 0.00 | 0.00 | 0.00 | 65 | 1010.7 |
| 20260505193457 | 17 | 214 | 24.1 | 53.1 | 0.00 | 0.00 | 0.00 | 65 | 1010.6 |
| 20260505192957 | 17 | 208 | 20.9 | 49.9 | 0.00 | 0.00 | 0.00 | 65 | 1010.6 |
| 20260505192457 | 17 | 213 | 16.1 | 53.1 | 0.00 | 0.00 | 0.00 | 66 | 1010.7 |
| 20260505191956 | 17 | 210 | 17.7 | 57.9 | 0.00 | 0.00 | 0.00 | 67 | 1010.9 |
| 20260505191455 | 18 | 210 | 19.3 | 45.1 | 0.00 | 0.00 | 0.00 | 65 | 1010.7 |
| 20260505190956 | 17 | 219 | 24.1 | 53.1 | 0.00 | 0.00 | 0.00 | 66 | 1010.8 |
| 20260505190456 | 18 | 212 | 24.1 | 49.9 | 0.00 | 0.00 | 0.00 | 64 | 1010.8 |
| 20260505185956 | 18 | 210 | 20.9 | 40.2 | 0.00 | 0.00 | 0.00 | 65 | 1010.8 |
| 20260505185456 | 18 | 216 | 29.0 | 51.5 | 0.00 | 0.00 | 0.00 | 64 | 1010.7 |
| 20260505184956 | 18 | 215 | 24.1 | 48.3 | 0.00 | 0.00 | 0.00 | 65 | 1010.8 |
| 20260505184456 | 18 | 215 | 22.5 | 46.7 | 0.00 | 0.00 | 0.00 | 65 | 1010.7 |
| 20260505183956 | 17 | 209 | 24.1 | 46.7 | 0.00 | 0.00 | 0.00 | 65 | 1010.9 |
| 20260505183456 | 18 | 208 | 24.1 | 49.9 | 0.00 | 0.00 | 0.00 | 64 | 1010.9 |
| 20260505182956 | 18 | 213 | 20.9 | 48.3 | 0.00 | 0.00 | 0.00 | 64 | 1011.1 |
| 20260505182456 | 18 | 212 | 16.1 | 41.8 | 0.00 | 0.00 | 0.00 | 64 | 1011.0 |
| 20260505181956 | 18 | 211 | 14.5 | 51.5 | 0.00 | 0.00 | 0.00 | 66 | 1011.1 |
| 20260505181456 | 18 | 210 | 22.5 | 46.7 | 0.00 | 0.00 | 0.00 | 65 | 1011.0 |
| 20260505180955 | 17 | 210 | 22.5 | 49.9 | 0.00 | 0.00 | 0.00 | 66 | 1011.1 |
| 20260505180456 | 18 | 200 | 14.5 | 37.0 | 0.00 | 0.00 | 0.00 | 64 | 1011.1 |
| 20260505175956 | 18 | 215 | 19.3 | 48.3 | 0.00 | 0.00 | 0.00 | 65 | 1011.2 |
| 20260505175456 | 18 | 202 | 20.9 | 43.5 | 0.00 | 0.00 | 0.00 | 63 | 1011.2 |
| 20260505174956 | 19 | 198 | 17.7 | 43.5 | 0.00 | 0.00 | 0.00 | 63 | 1011.1 |
| 20260505174455 | 19 | 205 | 20.9 | 41.8 | 0.00 | 0.00 | 0.00 | 63 | 1011.1 |
| 20260505173955 | 19 | 195 | 14.5 | 33.8 | 0.00 | 0.00 | 0.00 | 63 | 1011.3 |
| 20260505173456 | 19 | 206 | 16.1 | 43.5 | 0.00 | 0.00 | 0.00 | 62 | 1011.3 |
| 20260505172956 | 19 | 208 | 12.9 | 33.8 | 0.00 | 0.00 | 0.00 | 64 | 1011.6 |
| 20260505172456 | 19 | 213 | 19.3 | 38.6 | 0.00 | 0.00 | 0.00 | 63 | 1011.6 |
| 20260505171956 | 19 | 208 | 11.3 | 30.6 | 0.00 | 0.00 | 0.00 | 64 | 1011.6 |
| 20260505171456 | 19 | 202 | 16.1 | 37.0 | 0.00 | 0.00 | 0.00 | 64 | 1011.6 |
| 20260505170957 | 18 | 205 | 9.7 | 40.2 | 0.00 | 0.00 | 0.00 | 65 | 1011.6 |
| 20260505170456 | 18 | 192 | 17.7 | 37.0 | 0.00 | 0.00 | 0.00 | 65 | 1011.7 |
| 20260505165955 | 18 | 193 | 14.5 | 37.0 | 0.00 | 0.00 | 0.00 | 65 | 1011.6 |
| 20260505165455 | 18 | 202 | 19.3 | 41.8 | 0.00 | 0.00 | 0.00 | 64 | 1011.7 |
| 20260505164955 | 18 | 205 | 11.3 | 32.2 | 0.00 | 0.00 | 0.00 | 65 | 1011.6 |
| 20260505164455 | 18 | 212 | 16.1 | 38.6 | 0.00 | 0.00 | 0.00 | 64 | 1011.8 |
| 20260505163955 | 19 | 204 | 20.9 | 29.0 | 0.00 | 0.00 | 0.00 | 63 | 1011.8 |
| 20260505163456 | 18 | 196 | 12.9 | 32.2 | 0.00 | 0.00 | 0.00 | 65 | 1011.8 |
| 20260505162957 | 18 | 203 | 14.5 | 38.6 | 0.00 | 0.00 | 0.00 | 65 | 1012.1 |
| 20260505162457 | 18 | 203 | 14.5 | 49.9 | 0.00 | 0.00 | 0.00 | 66 | 1012.0 |
| 20260505161957 | 17 | 216 | 19.3 | 41.8 | 0.00 | 0.00 | 0.00 | 67 | 1012.0 |
| 20260505161456 | 18 | 208 | 19.3 | 40.2 | 0.00 | 0.00 | 0.00 | 66 | 1012.1 |
| 20260505160956 | 18 | 215 | 20.9 | 38.6 | 0.00 | 0.00 | 0.00 | 65 | 1012.0 |
| 20260505160455 | 18 | 203 | 14.5 | 37.0 | 0.00 | 0.00 | 0.00 | 66 | 1011.9 |
| 20260505152955 | 17 | 192 | 12.9 | 35.4 | 0.00 | 0.00 | 0.00 | 68 | 1012.2 |
| 20260505152457 | 17 | 192 | 24.1 | 45.1 | 0.00 | 0.00 | 0.00 | 66 | 1012.2 |
| 20260505151956 | 18 | 206 | 19.3 | 40.2 | 0.00 | 0.00 | 0.00 | 66 | 1012.1 |
| 20260505151456 | 17 | 207 | 16.1 | 38.6 | 0.00 | 0.00 | 0.00 | 68 | 1012.2 |
| 20260505150957 | 17 | 204 | 22.5 | 40.2 | 0.00 | 0.00 | 0.00 | 67 | 1012.0 |
| 20260505150455 | 17 | 203 | 20.9 | 33.8 | 0.00 | 0.00 | 0.00 | 67 | 1012.0 |
| 20260505140455 | 17 | 221 | 19.3 | 33.8 | 0.00 | 0.00 | 0.00 | 69 | 1011.8 |
| 20260505124955 | 15 | 211 | 20.9 | 45.1 | 0.00 | 0.00 | 0.00 | 73 | 1011.7 |
| 20260505124455 | 15 | 193 | 11.3 | 41.8 | 0.00 | 0.00 | 0.00 | 74 | 1011.8 |
| 20260505123955 | 15 | 206 | 16.1 | 41.8 | 0.00 | 0.00 | 0.00 | 74 | 1011.8 |
| 20260505123455 | 15 | 211 | 12.9 | 38.6 | 0.00 | 0.00 | 0.00 | 74 | 1011.9 |
| 20260505122955 | 15 | 204 | 16.1 | 35.4 | 0.00 | 0.00 | 0.00 | 74 | 1011.8 |
| 20260505122455 | 15 | 206 | 24.1 | 41.8 | 0.00 | 0.00 | 0.00 | 74 | 1011.8 |
| 20260505121955 | 15 | 203 | 16.1 | 37.0 | 0.00 | 0.00 | 0.00 | 75 | 1011.9 |
| 20260505121455 | 15 | 212 | 19.3 | 37.0 | 0.00 | 0.00 | 0.00 | 75 | 1011.9 |
| 20260505120955 | 15 | 199 | 16.1 | 32.2 | 0.00 | 0.00 | 0.00 | 75 | 1012.0 |
| 20260505120455 | 15 | 209 | 14.5 | 30.6 | 0.00 | 0.00 | 0.00 | 75 | 1012.1 |
| 20260505115955 | 15 | 220 | 16.1 | 35.4 | 0.00 | 0.00 | 0.00 | 76 | 1012.0 |
| 20260505115455 | 14 | 211 | 22.5 | 43.5 | 0.00 | 0.00 | 0.00 | 76 | 1011.9 |
| 20260505114955 | 14 | 202 | 16.1 | 38.6 | 0.00 | 0.00 | 0.00 | 76 | 1011.8 |
| 20260505114454 | 14 | 200 | 14.5 | 32.2 | 0.00 | 0.00 | 0.00 | 77 | 1011.9 |
| 20260505113955 | 14 | 208 | 22.5 | 37.0 | 0.00 | 0.00 | 0.00 | 77 | 1012.0 |
| 20260505113455 | 13 | 208 | 12.9 | 33.8 | 0.00 | 0.00 | 0.00 | 78 | 1011.9 |
| 20260505112954 | 13 | 206 | 16.1 | 37.0 | 0.00 | 0.00 | 0.00 | 78 | 1012.0 |
| 20260505112454 | 13 | 203 | 14.5 | 35.4 | 0.00 | 0.00 | 0.00 | 78 | 1012.0 |
| 20260505111954 | 13 | 193 | 11.3 | 33.8 | 0.00 | 0.00 | 0.00 | 79 | 1011.9 |
| 20260505111454 | 13 | 195 | 12.9 | 35.4 | 0.00 | 0.00 | 0.00 | 79 | 1011.9 |
| 20260505110954 | 13 | 191 | 14.5 | 35.4 | 0.00 | 0.00 | 0.00 | 79 | 1011.8 |
| 20260505110454 | 13 | 194 | 12.9 | 32.2 | 0.00 | 0.00 | 0.00 | 80 | 1011.8 |
| 20260505101954 | 12 | 202 | 11.3 | 29.0 | 0.00 | 0.00 | 0.00 | 83 | 1011.9 |
| 20260505101454 | 11 | 197 | 8.0 | 24.1 | 0.00 | 0.00 | 0.00 | 84 | 1011.7 |
| 20260505100954 | 11 | 191 | 9.7 | 27.4 | 0.00 | 0.00 | 0.00 | 85 | 1011.6 |
| 20260505100454 | 11 | 206 | 12.9 | 27.4 | 0.00 | 0.00 | 0.00 | 85 | 1011.8 |
| 20260505095954 | 11 | 207 | 11.3 | 29.0 | 0.00 | 0.00 | 0.00 | 86 | 1011.7 |
| 20260505095454 | 11 | 200 | 11.3 | 25.7 | 0.00 | 0.00 | 0.00 | 86 | 1011.7 |
| 20260505094954 | 11 | 193 | 12.9 | 27.4 | 0.00 | 0.00 | 0.00 | 86 | 1011.8 |
| 20260505094454 | 11 | 207 | 9.7 | 24.1 | 0.00 | 0.00 | 0.00 | 86 | 1011.8 |
| 20260505093954 | 10 | 194 | 12.9 | 25.7 | 0.00 | 0.00 | 0.00 | 86 | 1011.8 |
| 20260505093454 | 10 | 191 | 8.0 | 20.9 | 0.00 | 0.00 | 0.00 | 86 | 1011.8 |
| 20260505092954 | 10 | 188 | 11.3 | 29.0 | 0.00 | 0.00 | 0.00 | 86 | 1011.6 |
| 20260505092454 | 10 | 196 | 9.7 | 19.3 | 0.00 | 0.00 | 0.00 | 86 | 1011.7 |
| 20260505091954 | 10 | 188 | 9.7 | 19.3 | 0.00 | 0.00 | 0.00 | 86 | 1011.6 |
| 20260505091454 | 10 | 203 | 9.7 | 25.7 | 0.00 | 0.00 | 0.00 | 86 | 1011.7 |
| 20260505090954 | 10 | 201 | 12.9 | 19.3 | 0.00 | 0.00 | 0.00 | 86 | 1011.7 |
| 20260505090454 | 10 | 203 | 8.0 | 19.3 | 0.00 | 0.00 | 0.00 | 86 | 1011.6 |
| 20260505085954 | 10 | 195 | 11.3 | 19.3 | 0.00 | 0.00 | 0.00 | 86 | 1011.6 |
| 20260505085454 | 10 | 193 | 9.7 | 20.9 | 0.00 | 0.00 | 0.00 | 85 | 1011.7 |
| 20260505084954 | 10 | 196 | 11.3 | 16.1 | 0.00 | 0.00 | 0.00 | 85 | 1011.7 |
| 20260505084454 | 11 | 206 | 9.7 | 17.7 | 0.00 | 0.00 | 0.00 | 85 | 1011.7 |
| 20260505083954 | 11 | 205 | 8.0 | 19.3 | 0.00 | 0.00 | 0.00 | 85 | 1011.6 |
| 20260505083454 | 11 | 196 | 9.7 | 22.5 | 0.00 | 0.00 | 0.00 | 84 | 1011.7 |
| 20260505082954 | 11 | 206 | 8.0 | 19.3 | 0.00 | 0.00 | 0.00 | 84 | 1011.7 |
| 20260505082454 | 11 | 200 | 11.3 | 24.1 | 0.00 | 0.00 | 0.00 | 84 | 1011.7 |
| 20260505081954 | 11 | 207 | 12.9 | 25.7 | 0.00 | 0.00 | 0.00 | 84 | 1011.8 |
| 20260505081454 | 11 | 208 | 8.0 | 22.5 | 0.00 | 0.00 | 0.00 | 83 | 1011.9 |
| 20260505080954 | 11 | 209 | 14.5 | 24.1 | 0.00 | 0.00 | 0.00 | 83 | 1011.9 |
| 20260505080454 | 11 | 209 | 12.9 | 22.5 | 0.00 | 0.00 | 0.00 | 83 | 1011.9 |
| 20260505075954 | 11 | 217 | 14.5 | 24.1 | 0.00 | 0.00 | 0.00 | 83 | 1011.9 |
| 20260505075454 | 11 | 212 | 17.7 | 25.7 | 0.00 | 0.00 | 0.00 | 83 | 1011.9 |
| 20260505074954 | 11 | 211 | 11.3 | 35.4 | 0.00 | 0.00 | 0.00 | 83 | 1012.0 |
| 20260505074454 | 11 | 219 | 19.3 | 33.8 | 0.00 | 0.00 | 0.00 | 83 | 1012.0 |
| 20260505073954 | 11 | 218 | 19.3 | 35.4 | 0.00 | 0.00 | 0.00 | 83 | 1012.1 |
| 20260505073454 | 11 | 214 | 11.3 | 29.0 | 0.00 | 0.00 | 0.00 | 83 | 1012.0 |
| 20260505072954 | 11 | 217 | 16.1 | 32.2 | 0.00 | 0.00 | 0.00 | 83 | 1012.0 |
| 20260505072454 | 11 | 214 | 16.1 | 29.0 | 0.00 | 0.00 | 0.00 | 83 | 1011.9 |
| 20260505071954 | 11 | 222 | 16.1 | 30.6 | 0.00 | 0.00 | 0.00 | 83 | 1011.9 |
| 20260505071454 | 11 | 224 | 14.5 | 37.0 | 0.00 | 0.00 | 0.00 | 83 | 1011.9 |
| 20260505070954 | 11 | 217 | 16.1 | 40.2 | 0.00 | 0.00 | 0.00 | 83 | 1011.9 |